Tracking 31027 objects as of 19-Jul-2025
HD Live streaming from Space Station
objects crossing your sky now

STARLINK-5135

Track STARLINK-5135 now!
10-day predictions
STARLINK-5135 is classified as:


NORAD ID: 54005
Int'l Code: 2022-125AT
Perigee: 546.0 km
Apogee: 547.8 km
Inclination: 53.2 °
Period: 95.4 minutes
Semi major axis: 6917 km
RCS: Unknown
Launch date: October 5, 2022
Source: United States (US)
Launch site: AIR FORCE WESTERN TEST RANGE (AFWTR)
Your satellite tracking list
ATLAS 5 CENTAUR DEB
Track 1 satellite(s)




NASA's NSSDC Master Catalog

Two Line Element Set (TLE):
1 54005U 22125AT  25199.37981955 -.00000398  00000-0 -69173-5 0  9992
2 54005  53.2159 185.6972 0001265  81.8686 278.2450 15.08839336154093
Source of the keplerian elements: AFSPC